sat.trackr.live / text

‹ back to catalog

STARLINK-32799

NORAD 62847 · 2025-019U

PAYLOAD ACTIVE UNKNOWN

§ Identity

Operator
Country
US
Launch date
2025-01-27
Launch site
AFETR
Launch vehicle
Mass (kg)
RCS (m²)

Purposes: comms

External: N2YO · Heavens-Above · Gunter

§ Orbital elements

Epoch: 2026-05-25T00:00:54.260928Z

Period
94.27 min
Inclination
42.9999°
Eccentricity
0.0001415
Mean motion
15.27591840 rev/d
Perigee alt
482.0 km
Apogee alt
484.0 km
Semi-major
6,861.2 km
B*
5.0109e-4
RAAN
17.8463°
Arg perigee
277.3879°
Mean anomaly
82.6812°
Rev number
7,392

§ Raw data

STARLINK-327991 62847U 25019U   26145.00062802  .00013557  00000+0  50109-3 0  99982 62847  42.9999  17.8463 0001415 277.3879  82.6812 15.27591840 73924

JSON: /api/v1/satellites/62847 · /tle

For live sub-satellite position, see the globe view (requires WebGL).

§ Visibility from observer

Set your observer location to see the next 7 days of passes ≥ 10°. The values pass through the URL so the page stays shareable.

No JS? Fill the form by hand. The geolocation button needs JavaScript.